Weather in Sheleksa

Russia / Arkhangel'skaya Oblast'     62°53′43″N   40°18′31″E
temp.,
°C
wind,
m/s
gust,
m/s
humid.,
%
clouds,
%
prec.,
mm/h
press.,
hPa
HPBL,
m
11 may, tue
tue1100:00+9ssw51362100 0.1 1022760
03:00+9ssw51471100 0.1 1022635
06:00+9ssw41381100 0.3 1023564
09:00+12sw41075100 0.5 1023615
12:00+18sw6115578 0.0 10231226
15:00+21sw6114655 0.0 10231754
18:00+19wsw51151100 0.0 10241172
21:00+15sw41265100 0.0 1024381
12 may, wed
wed1200:00+13sw4137780 0.0 1025382
03:00+11sw31285100 0.0 1026300
06:00+12sw31178100 0.0 1027354
09:00+18sw465341 0.0 1026720
12:00+22wsw45395 0.0 10261408
15:00+24sw35360 0.0 10261714
18:00+23sw23430 0.0 10251016
21:00+16s22670 0.0 102528
13 may, thu
thu1300:00+14s22680 0.0 102514
03:00+12ssw22780 0.0 102523
06:00+15ssw25730 0.0 1025153
09:00+20ssw35463 0.0 1024584
12:00+24ssw364126 0.0 10231543
15:00+24ssw3542100 0.0 10211746
18:00+22ssw245376 0.0 1020384
21:00+18s116840 0.0 102016
14 may, fri
fri1400:00+15s227963 0.1 101913
03:00+13s228299 0.1 101813
06:00+16se1272100 0.0 101777
09:00+21se2453100 0.0 1016743
12:00+17ese257361 0.0 1014276
15:00+18sse4679100 2.2 1013527
18:00+17s258284 1.3 1012519
21:00+14s269684 1.5 1012192
15 may, sat
sat1500:00+13sw3798100 0.7 1012218
03:00+12wsw389683 1.3 1013200
06:00+14wsw268814 0.0 1013222
09:00+18sw2467100 0.0 1013615
12:00+22sw34435 0.0 10122044
15:00+22s2236100 0.0 10121886
18:00
21:00+17ene2263100 0.0 100814